Details From SBBI - Curitiba Bacacheri
To SBLO - Londrina
Flight Number -
Tags Routegen Generated
Created
Modified
Stats Distance 162 nm / 300 km
Max Altitude 800 ft / 244 m
Waypoints 8
Social Downloads 10
Likes 0
Share

Download

Looking for another format? Having issues loading an existing format? Contact us
Advertisement - Login to hide

Notes

Departing runway 33 SBBI. Arriving runway 11 SBLO.

Route

SBBI -25.33_-049.27 -25.29_-049.31 -24.61_-049.92 -23.45_-050.97 -23.40_-050.00 -23.36_-051.05 SBLO

ID Type Via Altitude (ft/m) Position (lat/lon) Dist (leg/tot) Name
O SBBI APT - 0 / 0 -25.39926 / -49.23469 - / 0 nm
-25.33_-049.27 LATLON - 800 / 244 -25.33237 / -49.26525 4 / 4 nm
-25.29_-049.31 LATLON - 800 / 244 -25.28964 / -49.30846 3 / 7 nm
-24.61_-049.92 LATLON - 800 / 244 -24.61312 / -49.92370 52 / 60 nm
-23.45_-050.97 LATLON - 800 / 244 -23.44968 / -50.96703 90 / 150 nm
-23.40_-050.00 LATLON - 800 / 244 -23.39941 / -50.99832 3 / 154 nm
-23.36_-051.05 LATLON - 800 / 244 -23.36198 / -51.04644 3 / 157 nm
O SBLO APT - 0 / 0 -23.33691 / -51.12038 4 / 162 nm

Altitude Profile

Advertisement - Login to hide

Weather


0- 5 10 15 20 25 30 35+ Temperature / °C

Clouds and Precipitation
Forecast for 2021-03-22 12:00 UTC. Updated 23 days ago

Ground ~20,000 ft ~40,000 ft Winds

SBBI

Details ICAO SBBI (BFH)
Name Curitiba Bacacheri
Region Brazil
Timezone America/Sao_Paulo (UTC-3.0)
Stats Elevation 3,058 ft / 932 m (AMSL)
Location -25.405100° -49.232000°
Runways 1
Magnetic Variation 20.094° W

METAR

SBBI 140100Z 08005KT 9999 SCT010 15/14 Q1023

Decode

TAF

TAF SBBI 132100Z 1400/1412 09006KT 9999 BKN012 BKN020 TN12/1408Z TX15/1412Z BECMG 1400/1402 BKN005 PROB40 TEMPO 1407/1410 4000 BR OVC003 BECMG 1410/1412 BKN010 RMK PER

Decode

Departure Runways

ID Width Length Bearing (true/mag) Surface Threshold Overrun Markings Lighting
18 102 ft / 31 m 4,573 ft / 1,394 m 157.86° / 177.95° ASPHALT 1,017 ft / 310 m 0 ft / 0 m APP EDGE THRESHOLD REIL-OMNI
36 102 ft / 31 m 4,573 ft / 1,394 m 337.86° / 357.95° ASPHALT 0 ft / 0 m 0 ft / 0 m APP EDGE THRESHOLD REIL-OMNI

SBLO

Details ICAO SBLO (LDB)
Name Londrina
Region Brazil
Timezone America/Sao_Paulo (UTC-3.0)
Stats Elevation 1,869 ft / 570 m (AMSL)
Location -23.333600° -51.130100°
Runways 1
Magnetic Variation 19.578° W

METAR

SBLO 140100Z 13010KT 9999 SCT040 22/18 Q1019

Decode

TAF

TAF SBLO 132130Z 1400/1412 14007KT CAVOK TX23/1400Z TN18/1409Z RMK PGM

Decode

Destination Runways

ID Width Length Bearing (true/mag) Surface Threshold Overrun Markings Lighting
13 148 ft / 45 m 6,888 ft / 2,100 m 110.10° / 129.68° ASPHALT 1,083 ft / 330 m 0 ft / 0 m APP CENTERLINE EDGE THRESHOLD REIL-OMNI
31 148 ft / 45 m 6,888 ft / 2,100 m 290.10° / 309.67° ASPHALT 0 ft / 0 m 0 ft / 0 m APP CENTERLINE EDGE THRESHOLD REIL-OMNI

Popular Alternatives